Satellite: UWE-1
Catalog number: 28892
Epoch time:      06291.26685415
Element set:    0581
Inclination:      098.1493 deg
RA of node:       187.3956 deg
Eccentricity:    0.0017961
Arg of perigee:   144.3736 deg
Mean anomaly:     215.8660 deg
Mean motion:   14.59407456 rev/day
Decay rate:       1.74e-06 rev/day^2
Epoch rev:           05192
Checksum:              336

Satellite: CO-58
Catalog number: 28895
Epoch time:      06291.25369421
Element set:    0564
Inclination:      098.1508 deg
RA of node:       187.5059 deg
Eccentricity:    0.0018166
Arg of perigee:   144.2773 deg
Mean anomaly:     215.9642 deg
Mean motion:   14.59457764 rev/day
Decay rate:       2.29e-06 rev/day^2
Epoch rev:           05180
Checksum:              344

Satellite: NCUBE2
Catalog number: 28897
Epoch time:      06291.62915574
Element set:    0134
Inclination:      098.1489 deg
RA of node:       187.8489 deg
Eccentricity:    0.0017415
Arg of perigee:   145.0451 deg
Mean anomaly:     215.1909 deg
Mean motion:   14.59614422 rev/day
Decay rate:       1.66e-06 rev/day^2
Epoch rev:           04413
Checksum:              322

/EX



_______________________________________________
Via the Keps mailing list courtesy of AMSAT-NA
Keps@amsat.org
http://amsat.org/mailman/listinfo/keps

--- ViaMAIL!/WC v1.60d
 * Origin: Chowdanet (401-724-4410) telnet://chowdanet.com  (1:323/120)